Regional Weather Roundup
Issued by NWS Burlington, VT

Current Version | Previous Version | Text Only | Print | Product List | Glossary On
Versions: 1 2 3 4 5 6 7 8 9 10 11 12 13 14 15 16 17 18 19 20 21 22 23 24 25 26 27 28 29 30 31 32 33 34 35 36 37 38 39 40 41 42 43 44 45 46 47 48 49 50
000
ASUS41 KBTV 301310
RWRBTV
VERMONT REGIONAL WEATHER ROUNDUP
NATIONAL WEATHER SERVICE BURLINGTON VT
900 AM EDT FRI SEP 30 2022

NOTE: "FAIR" INDICATES FEW OR NO CLOUDS BELOW 12,000 FEET WITH NO
SIGNIFICANT WEATHER AND/OR OBSTRUCTIONS TO VISIBILITY.

* THESE REPORTS ARE NOT UNDER NWS QUALITY CONTROL AND/OR DO NOT
  REPORT WEATHER SUCH AS PRECIPITATION AND FOG.

VTZ001>019-301400-
_____VERMONT_____


CITY           SKY/WX    TMP DP  RH WIND       PRES   REMARKS
BURLINGTON     MOSUNNY   45  40  82 CALM      30.40F
MONTPELIER     FOG       37  34  89 MISG      30.44S VSB 1/2
MORRISVILLE    FOG       37  35  92 CALM      30.42F VSB 1/4
ST. JOHNSBURY*   N/A     35  34  96 MISG      30.40F
LYNDONVILLE*   FOG       33  33  99 CALM      30.41F VSB<1/4
MIDDLEBURY*    FAIR      41  41 100 CALM      30.40S
RUTLAND*       SUNNY     41  39  93 CALM      30.40S
SPRINGFIELD    CLOUDY    37  36  96 CALM      30.42F FOG
HIGHGATE*      FAIR      47  46  95 SE3       30.41R
NEWPORT*       FAIR      40  38  92 SW3       30.41S
BENNINGTON     MOSUNNY   40  38  93 CALM      30.39S
LAKE EDEN*       N/A     39 N/A N/A E1          N/A

_____LAKE CHAMPLAIN_____


CITY           SKY/WX    TMP DP  RH WIND       PRES   REMARKS
COLCHESTER RF*   N/A     46  41  81 SE6         N/A
DIAMOND ISL*     N/A     43  41  93 SE5         N/A

$$

NYZ007-026>031-035-052-083-087-301400-
_____NORTHERN NEW YORK_____


CITY           SKY/WX    TMP DP  RH WIND       PRES   REMARKS
PLATTSBURGH    SUNNY     46  40  79 CALM      30.40S
SARANAC LAKE   SUNNY     38  36  92 CALM      30.37S
MASSENA        SUNNY     43  40  89 S3        30.42R
OGDENSBURG*    FAIR      43  43 100 VRB3      30.38S
POTSDAM*       SUNNY     45  43  93 CALM      30.40S
WATERTOWN      SUNNY     47  43  86 E3        30.39F
FT DRUM        SUNNY     44  38  78 SE5       30.37F
ALBANY         PTSUNNY   46  43  89 N3        30.41S
GLENS FALLS    MOSUNNY   42  41  96 CALM      30.40F

$$
NHZ002-005-011-301400-
_____NEW HAMPSHIRE_____


CITY           SKY/WX    TMP DP  RH WIND       PRES   REMARKS
LEBANON        FOG       40  38  93 CALM      30.41F VSB 1/4
KEENE          MOSUNNY   40  39  97 CALM        N/A
MT WASHINGTON  MOSUNNY   43  27  52 N9          N/A
PLYMOUTH       LGT SNOW  35  35 100 CALM      30.41F
WHITEFIELD     FOG       32  32 100 CALM      30.40F VSB 1/4

$$

_____REGIONAL QUEBEC LOCATIONS_____


CITY           SKY/WX    TMP DP  RH WIND       PRES   REMARKS
MONTREAL       MOSUNNY   48  45  87 VRB2      30.38S
QUEBEC CITY    MOSUNNY   45  43  93 SW8       30.36S
SHERBROOKE     SUNNY     39  37  93 CALM      30.39S

_____REGIONAL ONTARIO LOCATIONS_____


CITY           SKY/WX    TMP DP  RH WIND       PRES   REMARKS
OTTAWA         SUNNY     46  43  87 CALM      30.39S

______KEY______
VSB  - VISIBILITY IN MILES
WCI  - WIND CHILL INDEX
HX   - HEAT INDEX
$$
NNNN



USA.gov is the U.S. government's official web portal to all federal, state and local government web resources and services.